When you browse on this site, cookies collect data to enhance your experience and personalize the content and advertising you see.
Visit our Privacy Policy to learn more. By continuing to use the site, you agree to this use of cookies and data.
  • In Schweiz
  • Länderverzeichnis
  • Für 7 Tage
  • Wassertemperatur
  • Wetterkarte
  • Widgets
  • user-avatar
    Anmelden

    Stündliche Wetter Lehrte

    Heute, 16 Oktober, Mittwoch

    Zeit Temperatur Niederschläge Wind Luftdruck Luftfeuchtigkeit
    00:00 +15°C° 4 mm 5 m/S 749 mmHg 94%
    01:00 +14°C° 4 mm 6 m/S 749 mmHg 94%
    02:00 +14°C° 0.7 mm 6 m/S 749 mmHg 93%
    03:00 +13°C° 0.7 mm 5 m/S 749 mmHg 93%
    04:00 +13°C° 0.7 mm 4 m/S 749 mmHg 92%
    05:00 +13°C° 0.9 mm 5 m/S 749 mmHg 91%
    06:00 +12°C° 0.9 mm 5 m/S 750 mmHg 91%
    07:00 +11°C° 0.9 mm 6 m/S 750 mmHg 90%
    08:00 +11°C° 0.4 mm 6 m/S 750 mmHg 89%
    09:00 +12°C° 0.4 mm 5 m/S 751 mmHg 87%
    10:00 +12°C° 0.4 mm 5 m/S 751 mmHg 86%
    11:00 +13°C° 0 mm 5 m/S 751 mmHg 81%
    12:00 +14°C° 0 mm 6 m/S 751 mmHg 76%
    13:00 +15°C° 0 mm 6 m/S 751 mmHg 71%
    14:00 +15°C° 0 mm 5 m/S 751 mmHg 71%
    15:00 +15°C° 0 mm 4 m/S 751 mmHg 72%
    16:00 +15°C° 0 mm 4 m/S 751 mmHg 72%
    17:00 +14°C° 0 mm 4 m/S 751 mmHg 75%
    18:00 +14°C° 0 mm 4 m/S 751 mmHg 78%
    19:00 +13°C° 0 mm 5 m/S 751 mmHg 80%
    20:00 +13°C° 0 mm 5 m/S 751 mmHg 80%
    21:00 +13°C° 0 mm 5 m/S 751 mmHg 80%
    22:00 +13°C° 0 mm 5 m/S 752 mmHg 80%
    23:00 +13°C° 0.1 mm 4 m/S 752 mmHg 80%

    Morgen, 17 Oktober, Donnerstag

    Zeit Temperatur Niederschläge Wind Luftdruck Luftfeuchtigkeit
    00:00 +14°C° 0.1 mm 4 m/S 752 mmHg 80%
    01:00 +14°C° 0.1 mm 4 m/S 752 mmHg 79%
    02:00 +14°C° 0 mm 4 m/S 751 mmHg 78%
    03:00 +14°C° 0 mm 4 m/S 751 mmHg 78%
    04:00 +14°C° 0 mm 4 m/S 751 mmHg 77%
    05:00 +14°C° 0 mm 5 m/S 751 mmHg 79%
    06:00 +13°C° 0 mm 5 m/S 751 mmHg 81%
    07:00 +13°C° 0 mm 5 m/S 751 mmHg 82%
    08:00 +14°C° 0 mm 5 m/S 752 mmHg 80%
    09:00 +15°C° 0 mm 6 m/S 752 mmHg 78%
    10:00 +15°C° 0 mm 6 m/S 753 mmHg 75%
    11:00 +16°C° 0 mm 6 m/S 753 mmHg 72%
    12:00 +17°C° 0 mm 6 m/S 753 mmHg 69%
    13:00 +17°C° 0 mm 6 m/S 753 mmHg 66%
    14:00 +17°C° 0 mm 5 m/S 753 mmHg 68%
    15:00 +17°C° 0 mm 4 m/S 753 mmHg 70%
    16:00 +17°C° 0 mm 3 m/S 753 mmHg 72%
    17:00 +16°C° 0.1 mm 2 m/S 753 mmHg 76%
    18:00 +15°C° 0.1 mm 2 m/S 753 mmHg 80%
    19:00 +14°C° 0.1 mm 2 m/S 754 mmHg 84%
    20:00 +14°C° 0.1 mm 2 m/S 754 mmHg 87%
    21:00 +13°C° 0.1 mm 3 m/S 754 mmHg 89%
    22:00 +12°C° 0.1 mm 3 m/S 754 mmHg 91%
    23:00 +12°C° 0.2 mm 3 m/S 754 mmHg 91%

    übermorgen, 18 Oktober, Freitag

    Zeit Temperatur Niederschläge Wind Luftdruck Luftfeuchtigkeit
    00:00 +13°C° 0.2 mm 3 m/S 754 mmHg 91%
    01:00 +13°C° 0.2 mm 3 m/S 754 mmHg 90%
    02:00 +13°C° 0 mm 3 m/S 754 mmHg 91%
    03:00 +13°C° 0 mm 2 m/S 754 mmHg 92%
    04:00 +13°C° 0 mm 2 m/S 754 mmHg 92%
    05:00 +13°C° 0 mm 2 m/S 753 mmHg 92%
    06:00 +13°C° 0 mm 2 m/S 753 mmHg 92%
    07:00 +14°C° 0 mm 2 m/S 753 mmHg 92%
    08:00 +14°C° 0 mm 4 m/S 752 mmHg 89%
    09:00 +14°C° 0 mm 5 m/S 752 mmHg 85%
    10:00 +15°C° 0 mm 6 m/S 752 mmHg 82%
    11:00 +16°C° 0.2 mm 6 m/S 752 mmHg 77%
    12:00 +16°C° 0.2 mm 7 m/S 752 mmHg 71%
    13:00 +16°C° 0.2 mm 7 m/S 752 mmHg 66%
    14:00 +16°C° 0 mm 6 m/S 752 mmHg 66%
    15:00 +17°C° 0 mm 4 m/S 752 mmHg 66%
    16:00 +17°C° 0 mm 3 m/S 752 mmHg 66%
    17:00 +14°C° 0 mm 3 m/S 752 mmHg 70%
    18:00 +13°C° 0 mm 3 m/S 752 mmHg 74%
    19:00 +12°C° 0 mm 3 m/S 753 mmHg 78%
    20:00 +13°C° 0 mm 2 m/S 753 mmHg 79%
    21:00 +12°C° 0 mm 2 m/S 753 mmHg 81%
    22:00 +12°C° 0 mm 2 m/S 753 mmHg 82%
    23:00 +12°C° 0 mm 2 m/S 753 mmHg 82%

    19 Oktober, Samstag

    Zeit Temperatur Niederschläge Wind Luftdruck Luftfeuchtigkeit
    00:00 +12°C° 0 mm 2 m/S 753 mmHg 82%
    01:00 +12°C° 0 mm 2 m/S 753 mmHg 82%
    02:00 +12°C° 0 mm 2 m/S 752 mmHg 81%
    03:00 +12°C° 0 mm 2 m/S 752 mmHg 81%
    04:00 +12°C° 0 mm 2 m/S 752 mmHg 81%
    05:00 +12°C° 0.2 mm 2 m/S 752 mmHg 84%
    06:00 +12°C° 0.2 mm 3 m/S 751 mmHg 86%
    07:00 +12°C° 0.2 mm 3 m/S 751 mmHg 89%
    08:00 +12°C° 0.3 mm 3 m/S 751 mmHg 89%
    09:00 +12°C° 0.3 mm 3 m/S 751 mmHg 89%
    10:00 +13°C° 0.3 mm 3 m/S 750 mmHg 89%
    11:00 +13°C° 0.2 mm 3 m/S 750 mmHg 89%
    12:00 +13°C° 0.2 mm 3 m/S 750 mmHg 89%
    13:00 +13°C° 0.2 mm 3 m/S 750 mmHg 90%
    14:00 +13°C° 0.1 mm 3 m/S 749 mmHg 90%
    15:00 +14°C° 0.1 mm 2 m/S 749 mmHg 90%
    16:00 +14°C° 0.1 mm 2 m/S 748 mmHg 90%
    17:00 +14°C° 1.2 mm 2 m/S 748 mmHg 92%
    18:00 +14°C° 1.2 mm 2 m/S 749 mmHg 93%
    19:00 +13°C° 1.2 mm 3 m/S 749 mmHg 95%
    20:00 +13°C° 0.5 mm 3 m/S 749 mmHg 93%
    21:00 +12°C° 0.5 mm 3 m/S 749 mmHg 92%
    22:00 +12°C° 0.5 mm 3 m/S 749 mmHg 91%
    23:00 +12°C° 0 mm 3 m/S 750 mmHg 91%

    20 Oktober, Sonntag

    Zeit Temperatur Niederschläge Wind Luftdruck Luftfeuchtigkeit
    00:00 +12°C° 0 mm 3 m/S 750 mmHg 90%
    01:00 +11°C° 0 mm 4 m/S 750 mmHg 90%
    02:00 +11°C° 0 mm 3 m/S 751 mmHg 91%
    03:00 +10°C° 0 mm 3 m/S 751 mmHg 92%
    04:00 +10°C° 0 mm 3 m/S 751 mmHg 92%
    05:00 +10°C° 0 mm 3 m/S 752 mmHg 92%
    06:00 +9°C° 0 mm 3 m/S 752 mmHg 93%
    07:00 +9°C° 0 mm 3 m/S 753 mmHg 93%
    08:00 +10°C° 0 mm 3 m/S 753 mmHg 88%
    09:00 +12°C° 0 mm 3 m/S 753 mmHg 83%
    10:00 +13°C° 0 mm 4 m/S 754 mmHg 79%
    11:00 +14°C° 0 mm 3 m/S 754 mmHg 75%
    12:00 +14°C° 0 mm 3 m/S 754 mmHg 72%
    13:00 +16°C° 0 mm 3 m/S 754 mmHg 69%
    14:00 +16°C° 0 mm 2 m/S 755 mmHg 71%
    15:00 +16°C° 0 mm 2 m/S 755 mmHg 73%
    16:00 +15°C° 0 mm 1 m/S 755 mmHg 75%
    17:00 +14°C° 0 mm 1 m/S 755 mmHg 78%
    18:00 +13°C° 0 mm 1 m/S 756 mmHg 82%
    19:00 +12°C° 0 mm 1 m/S 756 mmHg 85%
    20:00 +12°C° 0 mm 1 m/S 756 mmHg 86%
    21:00 +12°C° 0 mm 1 m/S 757 mmHg 87%
    22:00 +12°C° 0 mm 1 m/S 757 mmHg 88%
    23:00 +12°C° 0 mm 1 m/S 757 mmHg 87%

    21 Oktober, Montag

    Zeit Temperatur Niederschläge Wind Luftdruck Luftfeuchtigkeit
    00:00 +12°C° 0 mm 1 m/S 757 mmHg 87%
    01:00 +12°C° 0 mm 1 m/S 757 mmHg 87%
    02:00 +12°C° 0 mm 1 m/S 757 mmHg 87%
    03:00 +12°C° 0 mm 1 m/S 757 mmHg 86%
    04:00 +12°C° 0 mm 1 m/S 758 mmHg 86%
    05:00 +12°C° 0 mm 1 m/S 758 mmHg 87%
    06:00 +12°C° 0 mm 1 m/S 758 mmHg 88%
    07:00 +12°C° 0 mm 1 m/S 758 mmHg 88%
    08:00 +12°C° 0 mm 1 m/S 759 mmHg 87%
    09:00 +13°C° 0 mm 1 m/S 759 mmHg 85%
    10:00 +14°C° 0 mm 2 m/S 759 mmHg 83%
    11:00 +14°C° 0 mm 2 m/S 759 mmHg 83%
    12:00 +14°C° 0 mm 2 m/S 760 mmHg 83%
    13:00 +14°C° 0 mm 2 m/S 760 mmHg 83%
    14:00 +13°C° 0 mm 3 m/S 760 mmHg 83%
    15:00 +13°C° 0 mm 3 m/S 760 mmHg 82%
    16:00 +13°C° 0 mm 3 m/S 759 mmHg 82%
    17:00 +13°C° 0 mm 3 m/S 760 mmHg 85%
    18:00 +12°C° 0 mm 3 m/S 760 mmHg 89%
    19:00 +11°C° 0 mm 3 m/S 760 mmHg 92%
    20:00 +11°C° 0 mm 3 m/S 761 mmHg 93%
    21:00 +11°C° 0 mm 3 m/S 761 mmHg 93%
    22:00 +10°C° 0 mm 3 m/S 761 mmHg 94%
    23:00 +10°C° 0 mm 3 m/S 761 mmHg 94%
    Mehr zeigen